Year,Month,Day,Hour,Minute,Value (Times are PST for windspeed in km/hr)
2007,03,11,00,00,2.90
2007,03,11,00,01,4.40
2007,03,11,00,02,5.20
2007,03,11,00,03,5.10
2007,03,11,00,04,4.20
2007,03,11,00,05,3.00
2007,03,11,00,06,2.20
2007,03,11,00,07,0.40
2007,03,11,00,08,0.00
2007,03,11,00,09,0.00
2007,03,11,00,10,1.30
2007,03,11,00,11,3.20
2007,03,11,00,12,2.10
2007,03,11,00,13,2.20
2007,03,11,00,14,0.40
2007,03,11,00,15,0.00
2007,03,11,00,16,0.00
2007,03,11,00,17,0.00
2007,03,11,00,18,0.00
2007,03,11,00,19,0.00
2007,03,11,00,20,0.00
2007,03,11,00,21,0.00
2007,03,11,00,22,0.00
2007,03,11,00,23,0.20
2007,03,11,00,24,0.00
2007,03,11,00,25,0.30
2007,03,11,00,26,1.40
2007,03,11,00,27,0.00
2007,03,11,00,28,1.20
2007,03,11,00,29,1.80
2007,03,11,00,30,3.60
2007,03,11,00,31,3.60
2007,03,11,00,32,2.80
2007,03,11,00,33,2.50
2007,03,11,00,34,1.60
2007,03,11,00,35,1.10
2007,03,11,00,36,1.80
2007,03,11,00,37,1.80
2007,03,11,00,38,1.60
2007,03,11,00,39,1.30
2007,03,11,00,40,1.30
2007,03,11,00,41,1.80
2007,03,11,00,42,2.70
2007,03,11,00,43,0.60
2007,03,11,00,44,2.70
2007,03,11,00,45,0.50
2007,03,11,00,46,2.20
2007,03,11,00,47,2.20
2007,03,11,00,48,1.30
2007,03,11,00,49,1.10
2007,03,11,00,50,1.30
2007,03,11,00,51,0.50
2007,03,11,00,52,1.50
2007,03,11,00,53,1.30
2007,03,11,00,54,0.00
2007,03,11,00,55,0.00
2007,03,11,00,56,0.10
2007,03,11,00,57,1.80
2007,03,11,00,58,1.90
2007,03,11,00,59,2.30
2007,03,11,01,00,0.60
2007,03,11,01,01,1.50
2007,03,11,01,02,3.30
2007,03,11,01,03,4.70
2007,03,11,01,04,5.50
2007,03,11,01,05,3.30
2007,03,11,01,06,0.60
2007,03,11,01,07,0.40
2007,03,11,01,08,0.00
2007,03,11,01,09,0.00
2007,03,11,01,10,0.10
2007,03,11,01,11,1.70
2007,03,11,01,12,2.40
2007,03,11,01,13,0.70
2007,03,11,01,14,1.80
2007,03,11,01,15,1.40
2007,03,11,01,16,0.10
2007,03,11,01,17,0.00
2007,03,11,01,18,0.10
2007,03,11,01,19,0.40
2007,03,11,01,20,1.20
2007,03,11,01,21,1.80
2007,03,11,01,22,1.30
2007,03,11,01,23,1.30
2007,03,11,01,24,2.40
2007,03,11,01,25,3.40
2007,03,11,01,26,2.60
2007,03,11,01,27,1.30
2007,03,11,01,28,1.60
2007,03,11,01,29,1.40
2007,03,11,01,30,2.20
2007,03,11,01,31,1.70
2007,03,11,01,32,2.00
2007,03,11,01,33,1.50
2007,03,11,01,34,1.60
2007,03,11,01,35,1.50
2007,03,11,01,36,1.60
2007,03,11,01,37,1.70
2007,03,11,01,38,1.50
2007,03,11,01,39,2.20
2007,03,11,01,40,2.80
2007,03,11,01,41,3.00
2007,03,11,01,42,4.40
2007,03,11,01,43,3.70
2007,03,11,01,44,4.70
2007,03,11,01,45,5.10
2007,03,11,01,46,5.40
2007,03,11,01,47,6.70
2007,03,11,01,48,3.90
2007,03,11,01,49,4.20
2007,03,11,01,50,3.40
2007,03,11,01,51,4.80
2007,03,11,01,52,4.50
2007,03,11,01,53,3.80
2007,03,11,01,54,4.50
2007,03,11,01,55,4.40
2007,03,11,01,56,3.60
2007,03,11,01,57,1.60
2007,03,11,01,58,2.50
2007,03,11,01,59,1.90
2007,03,11,03,00,0.50
2007,03,11,03,01,3.20
2007,03,11,03,02,2.50
2007,03,11,03,03,0.20
2007,03,11,03,04,2.80
2007,03,11,03,05,5.70
2007,03,11,03,06,5.00
2007,03,11,03,07,8.10
2007,03,11,03,08,8.10
2007,03,11,03,09,8.10
2007,03,11,03,10,8.10
2007,03,11,03,11,4.20
2007,03,11,03,12,0.40
2007,03,11,03,13,2.50
2007,03,11,03,14,3.20
2007,03,11,03,15,2.70
2007,03,11,03,16,1.80
2007,03,11,03,17,3.10
2007,03,11,03,18,1.10
2007,03,11,03,19,0.80
2007,03,11,03,20,1.80
2007,03,11,03,21,1.60
2007,03,11,03,22,1.60
2007,03,11,03,23,1.50
2007,03,11,03,24,3.10
2007,03,11,03,25,3.60
2007,03,11,03,26,3.70
2007,03,11,03,27,3.30
2007,03,11,03,28,3.00
2007,03,11,03,29,2.70
2007,03,11,03,30,2.30
2007,03,11,03,31,2.10
2007,03,11,03,32,2.40
2007,03,11,03,33,1.70
2007,03,11,03,34,1.10
2007,03,11,03,35,2.70
2007,03,11,03,36,0.80
2007,03,11,03,37,0.00
2007,03,11,03,38,0.00
2007,03,11,03,39,0.30
2007,03,11,03,40,0.30
2007,03,11,03,41,1.70
2007,03,11,03,42,2.00
2007,03,11,03,43,1.40
2007,03,11,03,44,2.40
2007,03,11,03,45,0.40
2007,03,11,03,46,0.10
2007,03,11,03,47,0.30
2007,03,11,03,48,0.20
2007,03,11,03,49,0.10
2007,03,11,03,50,0.60
2007,03,11,03,51,0.50
2007,03,11,03,52,2.70
2007,03,11,03,53,1.60
2007,03,11,03,54,0.10
2007,03,11,03,55,0.10
2007,03,11,03,56,0.20
2007,03,11,03,57,0.20
2007,03,11,03,58,0.10
2007,03,11,03,59,0.00
2007,03,11,04,00,0.00
2007,03,11,04,01,0.00
2007,03,11,04,02,0.00
2007,03,11,04,03,0.00
2007,03,11,04,04,0.00
2007,03,11,04,05,0.10
2007,03,11,04,06,0.40
2007,03,11,04,07,1.10
2007,03,11,04,08,2.70
2007,03,11,04,09,3.60
2007,03,11,04,10,4.50
2007,03,11,04,11,4.00
2007,03,11,04,12,3.50
2007,03,11,04,13,3.80
2007,03,11,04,14,4.30
2007,03,11,04,15,4.40
2007,03,11,04,16,2.70
2007,03,11,04,17,2.80
2007,03,11,04,18,2.60
2007,03,11,04,19,3.10
2007,03,11,04,20,3.40
2007,03,11,04,21,3.60
2007,03,11,04,22,3.20
2007,03,11,04,23,1.60
2007,03,11,04,24,2.80
2007,03,11,04,25,2.20
2007,03,11,04,26,0.60
2007,03,11,04,27,0.60
2007,03,11,04,28,2.40
2007,03,11,04,29,2.40
2007,03,11,04,30,1.70
2007,03,11,04,31,0.40
2007,03,11,04,32,0.70
2007,03,11,04,33,2.80
2007,03,11,04,34,2.80
2007,03,11,04,35,3.70
2007,03,11,04,36,4.70
2007,03,11,04,37,3.80
2007,03,11,04,38,2.40
2007,03,11,04,39,3.30
2007,03,11,04,40,3.40
2007,03,11,04,41,3.10
2007,03,11,04,42,2.80
2007,03,11,04,43,2.80
2007,03,11,04,44,2.90
2007,03,11,04,45,4.10
2007,03,11,04,46,3.20
2007,03,11,04,47,3.10
2007,03,11,04,48,5.20
2007,03,11,04,49,4.70
2007,03,11,04,50,3.20
2007,03,11,04,51,2.30
2007,03,11,04,52,1.70
2007,03,11,04,53,2.40
2007,03,11,04,54,1.50
2007,03,11,04,55,1.40
2007,03,11,04,56,0.90
2007,03,11,04,57,0.10
2007,03,11,04,58,2.00
2007,03,11,04,59,3.10
2007,03,11,05,00,1.20
2007,03,11,05,01,0.00
2007,03,11,05,02,0.00
2007,03,11,05,03,0.00
2007,03,11,05,04,0.00
2007,03,11,05,05,0.00
2007,03,11,05,06,0.00
2007,03,11,05,07,0.00
2007,03,11,05,08,2.60
2007,03,11,05,09,4.80
2007,03,11,05,10,4.70
2007,03,11,05,11,5.20
2007,03,11,05,12,4.00
2007,03,11,05,13,4.40
2007,03,11,05,14,4.00
2007,03,11,05,15,4.60
2007,03,11,05,16,5.00
2007,03,11,05,17,2.20
2007,03,11,05,18,3.70
2007,03,11,05,19,4.60
2007,03,11,05,20,5.40
2007,03,11,05,21,5.90
2007,03,11,05,22,5.40
2007,03,11,05,23,4.70
2007,03,11,05,24,3.10
2007,03,11,05,25,3.60
2007,03,11,05,26,4.00
2007,03,11,05,27,3.90
2007,03,11,05,28,3.60
2007,03,11,05,29,5.00
2007,03,11,05,30,5.70
2007,03,11,05,31,6.40
2007,03,11,05,32,6.40
2007,03,11,05,33,5.50
2007,03,11,05,34,6.70
2007,03,11,05,35,6.40
2007,03,11,05,36,4.30
2007,03,11,05,37,2.50
2007,03,11,05,38,3.10
2007,03,11,05,39,4.50
2007,03,11,05,40,5.00
2007,03,11,05,41,3.70
2007,03,11,05,42,4.20
2007,03,11,05,43,4.80
2007,03,11,05,44,3.40
2007,03,11,05,45,5.00
2007,03,11,05,46,3.50
2007,03,11,05,47,3.20
2007,03,11,05,48,3.20
2007,03,11,05,49,3.40
2007,03,11,05,50,4.30
2007,03,11,05,51,5.60
2007,03,11,05,52,3.90
2007,03,11,05,53,1.80
2007,03,11,05,54,0.10
2007,03,11,05,55,1.50
2007,03,11,05,56,5.00
2007,03,11,05,57,5.80
2007,03,11,05,58,5.50
2007,03,11,05,59,4.80
2007,03,11,06,00,4.80
2007,03,11,06,01,4.80
2007,03,11,06,02,4.80
2007,03,11,06,03,2.20
2007,03,11,06,04,1.70
2007,03,11,06,05,3.80
2007,03,11,06,06,4.10
2007,03,11,06,07,3.40
2007,03,11,06,08,3.10
2007,03,11,06,09,4.00
2007,03,11,06,10,4.30
2007,03,11,06,11,1.50
2007,03,11,06,12,1.60
2007,03,11,06,13,5.60
2007,03,11,06,14,6.20
2007,03,11,06,15,7.30
2007,03,11,06,16,4.80
2007,03,11,06,17,5.50
2007,03,11,06,18,5.20
2007,03,11,06,19,5.40
2007,03,11,06,20,4.90
2007,03,11,06,21,5.30
2007,03,11,06,22,5.00
2007,03,11,06,23,4.90
2007,03,11,06,24,4.20
2007,03,11,06,25,4.40
2007,03,11,06,26,5.00
2007,03,11,06,27,4.20
2007,03,11,06,28,3.20
2007,03,11,06,29,3.70
2007,03,11,06,30,3.40
2007,03,11,06,31,4.30
2007,03,11,06,32,2.80
2007,03,11,06,33,3.70
2007,03,11,06,34,4.40
2007,03,11,06,35,3.80
2007,03,11,06,36,2.10
2007,03,11,06,37,1.70
2007,03,11,06,38,3.20
2007,03,11,06,39,3.10
2007,03,11,06,40,4.80
2007,03,11,06,41,5.10
2007,03,11,06,42,4.50
2007,03,11,06,43,4.80
2007,03,11,06,44,4.10
2007,03,11,06,45,4.80
2007,03,11,06,46,4.70
2007,03,11,06,47,5.80
2007,03,11,06,48,4.70
2007,03,11,06,49,4.50
2007,03,11,06,50,4.00
2007,03,11,06,51,3.40
2007,03,11,06,52,2.90
2007,03,11,06,53,1.90
2007,03,11,06,54,2.20
2007,03,11,06,55,2.70
2007,03,11,06,56,4.70
2007,03,11,06,57,3.60
2007,03,11,06,58,1.70
2007,03,11,06,59,5.90
2007,03,11,07,00,9.10
2007,03,11,07,01,6.10
2007,03,11,07,02,1.50
2007,03,11,07,03,0.00
2007,03,11,07,04,2.30
2007,03,11,07,05,4.50
2007,03,11,07,06,1.40
2007,03,11,07,07,0.00
2007,03,11,07,08,0.80
2007,03,11,07,09,0.00
2007,03,11,07,10,0.10
2007,03,11,07,11,0.00
2007,03,11,07,12,0.50
2007,03,11,07,13,2.10
2007,03,11,07,14,1.00
2007,03,11,07,15,0.00
2007,03,11,07,16,0.00
2007,03,11,07,17,0.00
2007,03,11,07,18,0.00
2007,03,11,07,19,0.00
2007,03,11,07,20,0.00
2007,03,11,07,21,0.00
2007,03,11,07,22,0.20
2007,03,11,07,23,2.80
2007,03,11,07,24,3.40
2007,03,11,07,25,4.70
2007,03,11,07,26,4.00
2007,03,11,07,27,2.80
2007,03,11,07,28,1.60
2007,03,11,07,29,0.20
2007,03,11,07,30,0.90
2007,03,11,07,31,2.60
2007,03,11,07,32,1.60
2007,03,11,07,33,0.80
2007,03,11,07,34,0.00
2007,03,11,07,35,1.30
2007,03,11,07,36,0.10
2007,03,11,07,37,0.00
2007,03,11,07,38,0.60
2007,03,11,07,39,0.90
2007,03,11,07,40,0.20
2007,03,11,07,41,0.00
2007,03,11,07,42,0.00
2007,03,11,07,43,0.00
2007,03,11,07,44,0.00
2007,03,11,07,45,0.10
2007,03,11,07,46,0.00
2007,03,11,07,47,0.00
2007,03,11,07,48,0.90
2007,03,11,07,49,2.10
2007,03,11,07,50,2.20
2007,03,11,07,51,1.60
2007,03,11,07,52,0.50
2007,03,11,07,53,0.10
2007,03,11,07,54,0.00
2007,03,11,07,55,0.00
2007,03,11,07,56,0.50
2007,03,11,07,57,0.50
2007,03,11,07,58,0.10
2007,03,11,07,59,0.00
2007,03,11,08,00,0.70
2007,03,11,08,01,0.00
2007,03,11,08,02,0.20
2007,03,11,08,03,2.10
2007,03,11,08,04,0.70
2007,03,11,08,05,0.10
2007,03,11,08,06,1.10
2007,03,11,08,07,2.70
2007,03,11,08,08,1.50
2007,03,11,08,09,0.00
2007,03,11,08,10,0.10
2007,03,11,08,11,0.20
2007,03,11,08,12,0.00
2007,03,11,08,13,0.00
2007,03,11,08,14,0.00
2007,03,11,08,15,0.00
2007,03,11,08,16,0.10
2007,03,11,08,17,0.00
2007,03,11,08,18,0.00
2007,03,11,08,19,0.00
2007,03,11,08,20,0.00
2007,03,11,08,21,0.00
2007,03,11,08,22,0.00
2007,03,11,08,23,0.00
2007,03,11,08,24,0.00
2007,03,11,08,25,0.00
2007,03,11,08,26,0.00
2007,03,11,08,27,0.00
2007,03,11,08,28,0.00
2007,03,11,08,29,0.40
2007,03,11,08,30,0.00
2007,03,11,08,31,0.00
2007,03,11,08,32,0.00
2007,03,11,08,33,0.00
2007,03,11,08,34,0.00
2007,03,11,08,35,0.00
2007,03,11,08,36,0.00
2007,03,11,08,37,0.00
2007,03,11,08,38,0.00
2007,03,11,08,39,0.70
2007,03,11,08,40,1.10
2007,03,11,08,41,0.10
2007,03,11,08,42,0.00
2007,03,11,08,43,0.10
2007,03,11,08,44,0.00
2007,03,11,08,45,0.00
2007,03,11,08,46,0.00
2007,03,11,08,47,0.10
2007,03,11,08,48,1.60
2007,03,11,08,49,1.80
2007,03,11,08,50,0.10
2007,03,11,08,51,0.00
2007,03,11,08,52,0.00
2007,03,11,08,53,0.00
2007,03,11,08,54,0.40
2007,03,11,08,55,0.50
2007,03,11,08,56,0.10
2007,03,11,08,57,0.10
2007,03,11,08,58,1.20
2007,03,11,08,59,1.00
2007,03,11,09,00,0.00
2007,03,11,09,01,0.80
2007,03,11,09,02,0.40
2007,03,11,09,03,0.00
2007,03,11,09,04,0.00
2007,03,11,09,05,2.00
2007,03,11,09,06,5.20
2007,03,11,09,07,4.10
2007,03,11,09,08,1.90
2007,03,11,09,09,2.60
2007,03,11,09,10,0.50
2007,03,11,09,11,1.30
2007,03,11,09,12,3.90
2007,03,11,09,13,4.20
2007,03,11,09,14,2.60
2007,03,11,09,15,0.60
2007,03,11,09,16,1.50
2007,03,11,09,17,1.30
2007,03,11,09,18,0.80
2007,03,11,09,19,0.40
2007,03,11,09,20,1.60
2007,03,11,09,21,1.50
2007,03,11,09,22,1.20
2007,03,11,09,23,0.10
2007,03,11,09,24,0.70
2007,03,11,09,25,3.00
2007,03,11,09,26,2.30
2007,03,11,09,27,2.00
2007,03,11,09,28,0.10
2007,03,11,09,29,1.20
2007,03,11,09,30,0.60
2007,03,11,09,31,0.00
2007,03,11,09,32,0.00
2007,03,11,09,33,0.00
2007,03,11,09,34,0.00
2007,03,11,09,35,0.70
2007,03,11,09,36,0.00
2007,03,11,09,37,0.00
2007,03,11,09,38,0.20
2007,03,11,09,39,1.70
2007,03,11,09,40,0.50
2007,03,11,09,41,1.30
2007,03,11,09,42,1.60
2007,03,11,09,43,0.10
2007,03,11,09,44,0.00
2007,03,11,09,45,0.00
2007,03,11,09,46,0.00
2007,03,11,09,47,0.00
2007,03,11,09,48,0.00
2007,03,11,09,49,0.00
2007,03,11,09,50,1.90
2007,03,11,09,51,0.50
2007,03,11,09,52,0.00
2007,03,11,09,53,0.00
2007,03,11,09,54,0.70
2007,03,11,09,55,2.10
2007,03,11,09,56,0.80
2007,03,11,09,57,0.00
2007,03,11,09,58,0.00
2007,03,11,09,59,0.00
2007,03,11,10,00,0.00
2007,03,11,10,01,0.00
2007,03,11,10,02,1.00
2007,03,11,10,03,0.90
2007,03,11,10,04,0.80
2007,03,11,10,05,2.20
2007,03,11,10,06,1.20
2007,03,11,10,07,0.90
2007,03,11,10,08,2.10
2007,03,11,10,09,3.10
2007,03,11,10,10,1.30
2007,03,11,10,11,0.10
2007,03,11,10,12,0.10
2007,03,11,10,13,1.00
2007,03,11,10,14,0.60
2007,03,11,10,15,1.30
2007,03,11,10,16,2.90
2007,03,11,10,17,3.20
2007,03,11,10,18,2.30
2007,03,11,10,19,0.40
2007,03,11,10,20,1.50
2007,03,11,10,21,1.60
2007,03,11,10,22,1.60
2007,03,11,10,23,1.60
2007,03,11,10,24,1.60
2007,03,11,10,25,1.60
2007,03,11,10,26,1.60
2007,03,11,10,27,1.60
2007,03,11,10,28,0.60
2007,03,11,10,29,1.80
2007,03,11,10,30,4.40
2007,03,11,10,31,3.50
2007,03,11,10,32,3.30
2007,03,11,10,33,4.40
2007,03,11,10,34,3.50
2007,03,11,10,35,0.30
2007,03,11,10,36,0.80
2007,03,11,10,37,2.80
2007,03,11,10,38,2.70
2007,03,11,10,39,1.00
2007,03,11,10,40,0.50
2007,03,11,10,41,0.80
2007,03,11,10,42,3.80
2007,03,11,10,43,1.70
2007,03,11,10,44,0.70
2007,03,11,10,45,2.80
2007,03,11,10,46,4.40
2007,03,11,10,47,3.80
2007,03,11,10,48,8.40
2007,03,11,10,49,4.50
2007,03,11,10,50,5.20
2007,03,11,10,51,5.60
2007,03,11,10,52,7.50
2007,03,11,10,53,6.40
2007,03,11,10,54,8.70
2007,03,11,10,55,9.60
2007,03,11,10,56,9.60
2007,03,11,10,57,9.60
2007,03,11,10,58,9.60
2007,03,11,10,59,6.20
2007,03,11,11,00,3.50
2007,03,11,11,01,3.10
2007,03,11,11,02,2.50
2007,03,11,11,03,3.20
2007,03,11,11,04,3.20
2007,03,11,11,05,3.20
2007,03,11,11,06,2.00
2007,03,11,11,07,5.00
2007,03,11,11,08,0.80
2007,03,11,11,09,0.70
2007,03,11,11,10,4.20
2007,03,11,11,11,5.00
2007,03,11,11,12,6.30
2007,03,11,11,13,14.10
2007,03,11,11,14,5.90
2007,03,11,11,15,2.90
2007,03,11,11,16,4.80
2007,03,11,11,17,6.40
2007,03,11,11,18,7.40
2007,03,11,11,19,10.00
2007,03,11,11,20,6.20
2007,03,11,11,21,5.50
2007,03,11,11,22,6.30
2007,03,11,11,23,6.50
2007,03,11,11,24,6.40
2007,03,11,11,25,7.20
2007,03,11,11,26,12.10
2007,03,11,11,27,16.30
2007,03,11,11,28,14.10
2007,03,11,11,29,12.00
2007,03,11,11,30,8.20
2007,03,11,11,31,7.80
2007,03,11,11,32,4.80
2007,03,11,11,33,5.00
2007,03,11,11,34,10.00
2007,03,11,11,35,9.50
2007,03,11,11,36,9.70
2007,03,11,11,37,7.20
2007,03,11,11,38,7.80
2007,03,11,11,39,6.70
2007,03,11,11,40,4.40
2007,03,11,11,41,6.40
2007,03,11,11,42,5.40
2007,03,11,11,43,1.80
2007,03,11,11,44,5.20
2007,03,11,11,45,9.00
2007,03,11,11,46,12.40
2007,03,11,11,47,8.20
2007,03,11,11,48,7.90
2007,03,11,11,49,3.60
2007,03,11,11,50,5.20
2007,03,11,11,51,3.20
2007,03,11,11,52,2.70
2007,03,11,11,53,2.20
2007,03,11,11,54,1.80
2007,03,11,11,55,3.30
2007,03,11,11,56,1.60
2007,03,11,11,57,3.20
2007,03,11,11,58,3.20
2007,03,11,11,59,3.20
2007,03,11,12,00,4.20
2007,03,11,12,01,8.30
2007,03,11,12,02,6.70
2007,03,11,12,03,6.10
2007,03,11,12,04,4.80
2007,03,11,12,05,6.10
2007,03,11,12,06,5.60
2007,03,11,12,07,1.30
2007,03,11,12,08,1.70
2007,03,11,12,09,1.20
2007,03,11,12,10,1.80
2007,03,11,12,11,8.50
2007,03,11,12,12,10.40
2007,03,11,12,13,10.60
2007,03,11,12,14,8.30
2007,03,11,12,15,7.40
2007,03,11,12,16,8.10
2007,03,11,12,17,9.70
2007,03,11,12,18,15.10
2007,03,11,12,19,3.90
2007,03,11,12,20,5.30
2007,03,11,12,21,10.60
2007,03,11,12,22,7.10
2007,03,11,12,23,7.10
2007,03,11,12,24,7.50
2007,03,11,12,25,5.20
2007,03,11,12,26,5.60
2007,03,11,12,27,7.00
2007,03,11,12,28,6.70
2007,03,11,12,29,6.20
2007,03,11,12,30,5.50
2007,03,11,12,31,2.70
2007,03,11,12,32,6.70
2007,03,11,12,33,8.80
2007,03,11,12,34,8.50
2007,03,11,12,35,4.40
2007,03,11,12,36,5.00
2007,03,11,12,37,7.10
2007,03,11,12,38,7.20
2007,03,11,12,39,6.30
2007,03,11,12,40,10.20
2007,03,11,12,41,12.20
2007,03,11,12,42,10.00
2007,03,11,12,43,10.50
2007,03,11,12,44,14.10
2007,03,11,12,45,10.70
2007,03,11,12,46,7.20
2007,03,11,12,47,8.50
2007,03,11,12,48,5.90
2007,03,11,12,49,8.50
2007,03,11,12,50,5.80
2007,03,11,12,51,7.40
2007,03,11,12,52,11.60
2007,03,11,12,53,8.30
2007,03,11,12,54,3.40
2007,03,11,12,55,7.00
2007,03,11,12,56,9.50
2007,03,11,12,57,6.60
2007,03,11,12,58,5.20
2007,03,11,12,59,2.70
2007,03,11,13,00,0.80
2007,03,11,13,01,4.50
2007,03,11,13,02,5.10
2007,03,11,13,03,6.40
2007,03,11,13,04,6.40
2007,03,11,13,05,6.40
2007,03,11,13,06,6.40
2007,03,11,13,07,4.90
2007,03,11,13,08,2.90
2007,03,11,13,09,4.10
2007,03,11,13,10,4.00
2007,03,11,13,11,3.20
2007,03,11,13,12,3.30
2007,03,11,13,13,3.60
2007,03,11,13,14,5.70
2007,03,11,13,15,10.20
2007,03,11,13,16,8.40
2007,03,11,13,17,6.60
2007,03,11,13,18,5.60
2007,03,11,13,19,6.70
2007,03,11,13,20,5.70
2007,03,11,13,21,1.50
2007,03,11,13,22,2.90
2007,03,11,13,23,5.40
2007,03,11,13,24,3.00
2007,03,11,13,25,3.30
2007,03,11,13,26,11.90
2007,03,11,13,27,8.50
2007,03,11,13,28,6.10
2007,03,11,13,29,9.40
2007,03,11,13,30,5.50
2007,03,11,13,31,6.20
2007,03,11,13,32,6.40
2007,03,11,13,33,3.60
2007,03,11,13,34,2.10
2007,03,11,13,35,7.30
2007,03,11,13,36,8.60
2007,03,11,13,37,3.70
2007,03,11,13,38,7.80
2007,03,11,13,39,4.70
2007,03,11,13,40,3.20
2007,03,11,13,41,3.20
2007,03,11,13,42,3.20
2007,03,11,13,43,3.20
2007,03,11,13,44,3.20
2007,03,11,13,45,1.50
2007,03,11,13,46,0.50
2007,03,11,13,47,4.10
2007,03,11,13,48,3.60
2007,03,11,13,49,5.60
2007,03,11,13,50,4.10
2007,03,11,13,51,7.50
2007,03,11,13,52,7.70
2007,03,11,13,53,5.10
2007,03,11,13,54,4.80
2007,03,11,13,55,5.40
2007,03,11,13,56,5.60
2007,03,11,13,57,6.20
2007,03,11,13,58,6.50
2007,03,11,13,59,6.20
2007,03,11,14,00,7.40
2007,03,11,14,01,2.80
2007,03,11,14,02,1.20
2007,03,11,14,03,0.50
2007,03,11,14,04,0.90
2007,03,11,14,05,3.10
2007,03,11,14,06,3.50
2007,03,11,14,07,2.80
2007,03,11,14,08,0.10
2007,03,11,14,09,1.70
2007,03,11,14,10,5.10
2007,03,11,14,11,6.70
2007,03,11,14,12,4.70
2007,03,11,14,13,2.60
2007,03,11,14,14,1.60
2007,03,11,14,15,1.60
2007,03,11,14,16,6.40
2007,03,11,14,17,2.60
2007,03,11,14,18,3.40
2007,03,11,14,19,3.80
2007,03,11,14,20,4.20
2007,03,11,14,21,4.90
2007,03,11,14,22,3.40
2007,03,11,14,23,3.90
2007,03,11,14,24,2.40
2007,03,11,14,25,4.50
2007,03,11,14,26,5.50
2007,03,11,14,27,5.70
2007,03,11,14,28,5.60
2007,03,11,14,29,4.80
2007,03,11,14,30,4.80
2007,03,11,14,31,4.80
2007,03,11,14,32,5.00
2007,03,11,14,33,4.30
2007,03,11,14,34,4.30
2007,03,11,14,35,2.90
2007,03,11,14,36,0.80
2007,03,11,14,37,4.50
2007,03,11,14,38,7.10
2007,03,11,14,39,4.10
2007,03,11,14,40,4.60
2007,03,11,14,41,4.80
2007,03,11,14,42,7.20
2007,03,11,14,43,5.50
2007,03,11,14,44,3.80
2007,03,11,14,45,1.50
2007,03,11,14,46,0.20
2007,03,11,14,47,2.10
2007,03,11,14,48,3.40
2007,03,11,14,49,2.20
2007,03,11,14,50,1.60
2007,03,11,14,51,3.20
2007,03,11,14,52,3.20
2007,03,11,14,53,7.40
2007,03,11,14,54,7.00
2007,03,11,14,55,3.60
2007,03,11,14,56,5.20
2007,03,11,14,57,4.70
2007,03,11,14,58,3.00
2007,03,11,14,59,0.00
2007,03,11,15,00,0.20
2007,03,11,15,01,0.20
2007,03,11,15,02,2.30
2007,03,11,15,03,3.20
2007,03,11,15,04,3.20
2007,03,11,15,05,1.40
2007,03,11,15,06,2.30
2007,03,11,15,07,3.20
2007,03,11,15,08,4.90
2007,03,11,15,09,4.60
2007,03,11,15,10,2.20
2007,03,11,15,11,3.70
2007,03,11,15,12,4.80
2007,03,11,15,13,3.10
2007,03,11,15,14,5.40
2007,03,11,15,15,3.80
2007,03,11,15,16,3.90
2007,03,11,15,17,2.20
2007,03,11,15,18,4.50
2007,03,11,15,19,4.20
2007,03,11,15,20,1.70
2007,03,11,15,21,0.60
2007,03,11,15,22,0.10
2007,03,11,15,23,3.10
2007,03,11,15,24,2.10
2007,03,11,15,25,0.30
2007,03,11,15,26,0.30
2007,03,11,15,27,0.30
2007,03,11,15,28,0.20
2007,03,11,15,29,0.50
2007,03,11,15,30,0.00
2007,03,11,15,31,0.20
2007,03,11,15,32,4.30
2007,03,11,15,33,5.30
2007,03,11,15,34,1.60
2007,03,11,15,35,1.60
2007,03,11,15,36,0.40
2007,03,11,15,37,0.10
2007,03,11,15,38,0.10
2007,03,11,15,39,1.20
2007,03,11,15,40,0.10
2007,03,11,15,41,1.70
2007,03,11,15,42,3.00
2007,03,11,15,43,2.30
2007,03,11,15,44,1.40
2007,03,11,15,45,1.10
2007,03,11,15,46,0.10
2007,03,11,15,47,0.80
2007,03,11,15,48,2.00
2007,03,11,15,49,0.50
2007,03,11,15,50,0.30
2007,03,11,15,51,0.50
2007,03,11,15,52,2.70
2007,03,11,15,53,1.50
2007,03,11,15,54,4.30
2007,03,11,15,55,3.00
2007,03,11,15,56,13.60
2007,03,11,15,57,8.00
2007,03,11,15,58,12.00
2007,03,11,15,59,9.00
2007,03,11,16,00,2.90
2007,03,11,16,01,7.90
2007,03,11,16,02,11.30
2007,03,11,16,03,15.10
2007,03,11,16,04,8.60
2007,03,11,16,05,10.20
2007,03,11,16,06,12.10
2007,03,11,16,07,19.30
2007,03,11,16,08,18.80
2007,03,11,16,09,10.10
2007,03,11,16,10,16.00
2007,03,11,16,11,24.30
2007,03,11,16,12,17.50
2007,03,11,16,13,11.60
2007,03,11,16,14,10.20
2007,03,11,16,15,11.00
2007,03,11,16,16,12.60
2007,03,11,16,17,7.90
2007,03,11,16,18,10.80
2007,03,11,16,19,13.90
2007,03,11,16,20,12.20
2007,03,11,16,21,7.90
2007,03,11,16,22,8.10
2007,03,11,16,23,8.10
2007,03,11,16,24,15.20
2007,03,11,16,25,22.30
2007,03,11,16,26,17.20
2007,03,11,16,27,16.00
2007,03,11,16,28,21.50
2007,03,11,16,29,22.90
2007,03,11,16,30,24.80
2007,03,11,16,31,20.40
2007,03,11,16,32,22.80
2007,03,11,16,33,20.80
2007,03,11,16,34,17.80
2007,03,11,16,35,23.10
2007,03,11,16,36,21.30
2007,03,11,16,37,21.90
2007,03,11,16,38,21.80
2007,03,11,16,39,19.60
2007,03,11,16,40,20.50
2007,03,11,16,41,18.10
2007,03,11,16,42,11.00
2007,03,11,16,43,23.30
2007,03,11,16,44,19.00
2007,03,11,16,45,16.90
2007,03,11,16,46,12.60
2007,03,11,16,47,19.20
2007,03,11,16,48,24.70
2007,03,11,16,49,28.10
2007,03,11,16,50,20.30
2007,03,11,16,51,17.80
2007,03,11,16,52,21.80
2007,03,11,16,53,19.60
2007,03,11,16,54,18.00
2007,03,11,16,55,17.10
2007,03,11,16,56,22.80
2007,03,11,16,57,16.70
2007,03,11,16,58,16.90
2007,03,11,16,59,10.60
2007,03,11,17,00,24.50
2007,03,11,17,01,26.70
2007,03,11,17,02,23.70
2007,03,11,17,03,19.80
2007,03,11,17,04,24.50
2007,03,11,17,05,28.10
2007,03,11,17,06,23.40
2007,03,11,17,07,25.30
2007,03,11,17,08,31.70
2007,03,11,17,09,32.60
2007,03,11,17,10,29.00
2007,03,11,17,11,26.60
2007,03,11,17,12,22.40
2007,03,11,17,13,20.70
2007,03,11,17,14,23.70
2007,03,11,17,15,25.60
2007,03,11,17,16,30.60
2007,03,11,17,17,30.40
2007,03,11,17,18,27.70
2007,03,11,17,19,29.60
2007,03,11,17,20,30.10
2007,03,11,17,21,22.70
2007,03,11,17,22,29.40
2007,03,11,17,23,35.40
2007,03,11,17,24,35.40
2007,03,11,17,25,27.10
2007,03,11,17,26,22.40
2007,03,11,17,27,22.50
2007,03,11,17,28,33.90
2007,03,11,17,29,37.90
2007,03,11,17,30,30.30
2007,03,11,17,31,33.90
2007,03,11,17,32,32.30
2007,03,11,17,33,29.70
2007,03,11,17,34,30.40
2007,03,11,17,35,27.60
2007,03,11,17,36,26.60
2007,03,11,17,37,31.70
2007,03,11,17,38,25.30
2007,03,11,17,39,35.60
2007,03,11,17,40,38.30
2007,03,11,17,41,33.00
2007,03,11,17,42,28.10
2007,03,11,17,43,31.60
2007,03,11,17,44,39.70
2007,03,11,17,45,26.00
2007,03,11,17,46,29.70
2007,03,11,17,47,32.60
2007,03,11,17,48,34.50
2007,03,11,17,49,33.30
2007,03,11,17,50,35.60
2007,03,11,17,51,36.20
2007,03,11,17,52,31.70
2007,03,11,17,53,34.80
2007,03,11,17,54,31.60
2007,03,11,17,55,30.80
2007,03,11,17,56,31.50
2007,03,11,17,57,34.30
2007,03,11,17,58,39.00
2007,03,11,17,59,32.30
2007,03,11,18,00,30.20
2007,03,11,18,01,35.50
2007,03,11,18,02,29.30
2007,03,11,18,03,39.50
2007,03,11,18,04,40.20
2007,03,11,18,05,37.50
2007,03,11,18,06,36.50
2007,03,11,18,07,31.10
2007,03,11,18,08,26.80
2007,03,11,18,09,31.90
2007,03,11,18,10,29.80
2007,03,11,18,11,31.80
2007,03,11,18,12,37.90
2007,03,11,18,13,35.60
2007,03,11,18,14,32.50
2007,03,11,18,15,34.40
2007,03,11,18,16,35.40
2007,03,11,18,17,31.60
2007,03,11,18,18,32.60
2007,03,11,18,19,31.80
2007,03,11,18,20,28.70
2007,03,11,18,21,29.70
2007,03,11,18,22,30.40
2007,03,11,18,23,29.70
2007,03,11,18,24,29.90
2007,03,11,18,25,27.20
2007,03,11,18,26,31.20
2007,03,11,18,27,30.60
2007,03,11,18,28,35.60
2007,03,11,18,29,29.20
2007,03,11,18,30,33.10
2007,03,11,18,31,31.80
2007,03,11,18,32,29.70
2007,03,11,18,33,27.60
2007,03,11,18,34,27.60
2007,03,11,18,35,31.90
2007,03,11,18,36,26.90
2007,03,11,18,37,29.60
2007,03,11,18,38,30.00
2007,03,11,18,39,27.80
2007,03,11,18,40,25.60
2007,03,11,18,41,27.10
2007,03,11,18,42,21.30
2007,03,11,18,43,24.40
2007,03,11,18,44,30.50
2007,03,11,18,45,25.70
2007,03,11,18,46,23.80
2007,03,11,18,47,28.10
2007,03,11,18,48,26.80
2007,03,11,18,49,35.00
2007,03,11,18,50,29.70
2007,03,11,18,51,28.60
2007,03,11,18,52,24.70
2007,03,11,18,53,28.60
2007,03,11,18,54,31.50
2007,03,11,18,55,27.90
2007,03,11,18,56,29.20
2007,03,11,18,57,28.30